Time,TemperatureF,DewpointF,PressureIn,WindDirection,WindDirectionDegrees,WindSpeedMPH,WindSpeedGustMPH,Humidity,HourlyPrecipIn,Conditions,Clouds,dailyrainin,SoftwareType,DateUTC
2013-02-14 00:04:00,44.6,36.5,30.46,West,265,4.0,18.0,73,0.00,,,0.00,Weather View 32 v70,2013-02-14 08:04:00,
2013-02-14 00:09:00,44.5,36.4,30.46,WSW,251,4.0,18.0,73,0.00,,,0.00,Weather View 32 v70,2013-02-14 08:09:00,
2013-02-14 00:14:00,44.5,36.4,30.46,West,281,6.0,18.0,73,0.00,,,0.00,Weather View 32 v70,2013-02-14 08:14:00,
2013-02-14 00:19:00,44.5,36.4,30.46,WNW,284,1.0,18.0,73,0.00,,,0.00,Weather View 32 v70,2013-02-14 08:19:00,
2013-02-14 00:24:00,44.5,36.4,30.46,West,271,0.0,18.0,73,0.00,,,0.00,Weather View 32 v70,2013-02-14 08:24:00,
2013-02-14 00:29:00,44.3,36.2,30.46,WNW,286,0.0,18.0,73,0.00,,,0.00,Weather View 32 v70,2013-02-14 08:29:00,
2013-02-14 00:34:00,44.3,36.2,30.46,West,277,0.0,18.0,73,0.00,,,0.00,Weather View 32 v70,2013-02-14 08:34:00,
2013-02-14 00:39:00,44.3,36.2,30.46,WNW,293,2.0,18.0,73,0.00,,,0.00,Weather View 32 v70,2013-02-14 08:39:00,
2013-02-14 00:44:00,44.2,36.1,30.46,West,269,0.0,15.0,73,0.00,,,0.00,Weather View 32 v70,2013-02-14 08:44:00,
2013-02-14 00:49:00,44.3,36.5,30.46,WNW,294,5.0,15.0,74,0.00,,,0.00,Weather View 32 v70,2013-02-14 08:49:00,
2013-02-14 00:54:00,44.3,36.5,30.46,WSW,247,12.0,15.0,74,0.00,,,0.00,Weather View 32 v70,2013-02-14 08:54:00,
2013-02-14 00:59:00,44.6,36.5,30.46,West,270,9.0,15.0,73,0.00,,,0.00,Weather View 32 v70,2013-02-14 08:59:00,
2013-02-14 01:04:00,44.6,36.8,30.47,West,275,7.0,15.0,74,0.00,,,0.00,Weather View 32 v70,2013-02-14 09:04:00,
2013-02-14 01:09:00,44.6,36.8,30.47,West,261,7.0,14.0,74,0.00,,,0.00,Weather View 32 v70,2013-02-14 09:09:00,
2013-02-14 01:14:00,44.8,36.7,30.47,WNW,284,4.0,14.0,73,0.00,,,0.00,Weather View 32 v70,2013-02-14 09:14:00,
2013-02-14 01:19:00,44.8,36.7,30.47,West,267,2.0,14.0,73,0.00,,,0.00,Weather View 32 v70,2013-02-14 09:19:00,
2013-02-14 01:24:00,44.6,36.5,30.47,West,268,2.0,14.0,73,0.00,,,0.00,Weather View 32 v70,2013-02-14 09:24:00,
2013-02-14 01:29:00,44.5,36.4,30.47,West,275,0.0,14.0,73,0.00,,,0.00,Weather View 32 v70,2013-02-14 09:29:00,
2013-02-14 01:34:00,44.2,36.1,30.47,West,269,3.0,14.0,73,0.00,,,0.00,Weather View 32 v70,2013-02-14 09:34:00,
2013-02-14 01:39:00,44.1,36.0,30.48,West,269,0.0,14.0,73,0.00,,,0.00,Weather View 32 v70,2013-02-14 09:39:00,
2013-02-14 01:44:00,44.1,36.3,30.48,West,279,0.0,14.0,74,0.00,,,0.00,Weather View 32 v70,2013-02-14 09:44:00,
2013-02-14 01:49:00,43.9,35.8,30.48,WNW,287,3.0,14.0,73,0.00,,,0.00,Weather View 32 v70,2013-02-14 09:49:00,
2013-02-14 01:54:00,43.9,36.1,30.48,West,275,7.0,14.0,74,0.00,,,0.00,Weather View 32 v70,2013-02-14 09:54:00,
2013-02-14 01:59:00,44.1,36.0,30.48,WNW,290,6.0,12.0,73,0.00,,,0.00,Weather View 32 v70,2013-02-14 09:59:00,
2013-02-14 02:04:00,44.2,36.1,30.48,West,277,5.0,12.0,73,0.00,,,0.00,Weather View 32 v70,2013-02-14 10:04:00,
2013-02-14 02:09:00,44.1,36.3,30.48,West,277,2.0,12.0,74,0.00,,,0.00,Weather View 32 v70,2013-02-14 10:09:00,
2013-02-14 02:14:00,44.1,36.3,30.48,WNW,292,5.0,12.0,74,0.00,,,0.00,Weather View 32 v70,2013-02-14 10:14:00,
2013-02-14 02:19:00,44.2,36.4,30.48,West,267,6.0,12.0,74,0.00,,,0.00,Weather View 32 v70,2013-02-14 10:19:00,
2013-02-14 02:24:00,44.3,36.5,30.48,WNW,295,3.0,12.0,74,0.00,,,0.00,Weather View 32 v70,2013-02-14 10:24:00,
2013-02-14 02:29:00,44.5,36.4,30.48,WSW,252,10.0,13.0,73,0.00,,,0.00,Weather View 32 v70,2013-02-14 10:29:00,
2013-02-14 02:34:00,44.6,36.5,30.48,West,264,5.0,13.0,73,0.00,,,0.00,Weather View 32 v70,2013-02-14 10:34:00,
2013-02-14 02:39:00,44.6,36.5,30.48,West,263,4.0,13.0,73,0.00,,,0.00,Weather View 32 v70,2013-02-14 10:39:00,
2013-02-14 02:44:00,44.6,36.5,30.48,West,269,9.0,13.0,73,0.00,,,0.00,Weather View 32 v70,2013-02-14 10:44:00,
2013-02-14 02:49:00,44.5,36.4,30.47,West,270,10.0,13.0,73,0.00,,,0.00,Weather View 32 v70,2013-02-14 10:49:00,
2013-02-14 02:54:00,44.6,36.5,30.48,West,271,7.0,13.0,73,0.00,,,0.00,Weather View 32 v70,2013-02-14 10:54:00,
2013-02-14 02:59:00,44.5,36.7,30.48,West,279,4.0,13.0,74,0.00,,,0.00,Weather View 32 v70,2013-02-14 10:59:00,
2013-02-14 03:04:00,44.6,36.5,30.48,West,279,6.0,13.0,73,0.00,,,0.00,Weather View 32 v70,2013-02-14 11:04:00,
2013-02-14 03:09:00,44.8,36.7,30.48,WSW,252,3.0,15.0,73,0.00,,,0.00,Weather View 32 v70,2013-02-14 11:09:00,
2013-02-14 03:14:00,44.6,36.5,30.48,West,275,6.0,15.0,73,0.00,,,0.00,Weather View 32 v70,2013-02-14 11:14:00,
2013-02-14 03:19:00,44.8,36.7,30.47,West,263,2.0,15.0,73,0.00,,,0.00,Weather View 32 v70,2013-02-14 11:19:00,
2013-02-14 03:24:00,44.8,36.7,30.47,WSW,257,2.0,15.0,73,0.00,,,0.00,Weather View 32 v70,2013-02-14 11:24:00,
2013-02-14 03:29:00,44.6,36.5,30.47,West,260,0.0,15.0,73,0.00,,,0.00,Weather View 32 v70,2013-02-14 11:29:00,
2013-02-14 03:34:00,44.6,36.5,30.47,WSW,254,0.0,15.0,73,0.00,,,0.00,Weather View 32 v70,2013-02-14 11:34:00,
2013-02-14 03:39:00,44.5,36.4,30.47,WSW,256,3.0,15.0,73,0.00,,,0.00,Weather View 32 v70,2013-02-14 11:39:00,
2013-02-14 03:44:00,44.5,36.4,30.47,West,259,0.0,15.0,73,0.00,,,0.00,Weather View 32 v70,2013-02-14 11:44:00,
2013-02-14 03:49:00,44.3,36.2,30.47,West,267,2.0,15.0,73,0.00,,,0.00,Weather View 32 v70,2013-02-14 11:49:00,
2013-02-14 03:54:00,44.5,36.4,30.47,WSW,251,0.0,15.0,73,0.00,,,0.00,Weather View 32 v70,2013-02-14 11:54:00,
2013-02-14 03:59:00,44.3,36.2,30.47,WSW,251,0.0,15.0,73,0.00,,,0.00,Weather View 32 v70,2013-02-14 11:59:00,
2013-02-14 04:04:00,44.3,36.2,30.48,WNW,283,0.0,15.0,73,0.00,,,0.00,Weather View 32 v70,2013-02-14 12:04:00,
2013-02-14 04:09:00,44.2,36.1,30.47,WNW,292,0.0,12.0,73,0.00,,,0.00,Weather View 32 v70,2013-02-14 12:09:00,
2013-02-14 04:14:00,44.3,36.2,30.48,West,269,3.0,12.0,73,0.00,,,0.00,Weather View 32 v70,2013-02-14 12:14:00,
2013-02-14 04:19:00,44.2,36.1,30.48,West,277,4.0,10.0,73,0.00,,,0.00,Weather View 32 v70,2013-02-14 12:19:00,
2013-02-14 04:24:00,44.2,36.1,30.48,WSW,243,12.0,12.0,73,0.00,,,0.00,Weather View 32 v70,2013-02-14 12:24:00,
2013-02-14 04:29:00,44.3,36.2,30.48,WNW,286,3.0,13.0,73,0.00,,,0.00,Weather View 32 v70,2013-02-14 12:29:00,
2013-02-14 04:34:00,44.5,36.4,30.48,West,273,0.0,13.0,73,0.00,,,0.00,Weather View 32 v70,2013-02-14 12:34:00,
2013-02-14 04:39:00,44.1,36.0,30.48,WNW,300,0.0,13.0,73,0.00,,,0.00,Weather View 32 v70,2013-02-14 12:39:00,
2013-02-14 04:44:00,43.6,35.8,30.48,WNW,288,0.0,13.0,74,0.00,,,0.00,Weather View 32 v70,2013-02-14 12:44:00,
2013-02-14 04:49:00,43.1,36.0,30.48,WNW,288,0.0,13.0,76,0.00,,,0.00,Weather View 32 v70,2013-02-14 12:49:00,
2013-02-14 04:54:00,43.1,36.0,30.48,West,263,0.0,13.0,76,0.00,,,0.00,Weather View 32 v70,2013-02-14 12:54:00,
2013-02-14 04:59:00,43.2,36.1,30.48,West,263,0.0,13.0,76,0.00,,,0.00,Weather View 32 v70,2013-02-14 12:59:00,
2013-02-14 05:04:00,43.1,36.0,30.48,West,268,0.0,13.0,76,0.00,,,0.00,Weather View 32 v70,2013-02-14 13:04:00,
2013-02-14 05:09:00,43.1,36.0,30.48,WNW,294,0.0,13.0,76,0.00,,,0.00,Weather View 32 v70,2013-02-14 13:09:00,
2013-02-14 05:14:00,43.3,35.9,30.48,WSW,250,0.0,13.0,75,0.00,,,0.00,Weather View 32 v70,2013-02-14 13:14:00,
2013-02-14 05:19:00,43.3,35.9,30.48,West,262,0.0,13.0,75,0.00,,,0.00,Weather View 32 v70,2013-02-14 13:19:00,
2013-02-14 05:24:00,42.9,35.8,30.48,West,267,0.0,13.0,76,0.00,,,0.00,Weather View 32 v70,2013-02-14 13:24:00,
2013-02-14 05:29:00,42.8,35.8,30.48,West,275,0.0,9.0,76,0.00,,,0.00,Weather View 32 v70,2013-02-14 13:29:00,
2013-02-14 05:34:00,42.8,35.8,30.48,West,271,0.0,9.0,76,0.00,,,0.00,Weather View 32 v70,2013-02-14 13:34:00,
2013-02-14 05:39:00,43.1,36.0,30.48,West,277,3.0,9.0,76,0.00,,,0.00,Weather View 32 v70,2013-02-14 13:39:00,
2013-02-14 05:44:00,43.5,36.1,30.48,West,261,0.0,10.0,75,0.00,,,0.00,Weather View 32 v70,2013-02-14 13:44:00,
2013-02-14 05:49:00,43.6,35.8,30.49,West,269,0.0,10.0,74,0.00,,,0.00,Weather View 32 v70,2013-02-14 13:49:00,
2013-02-14 05:54:00,43.8,36.0,30.49,WNW,286,3.0,10.0,74,0.00,,,0.00,Weather View 32 v70,2013-02-14 13:54:00,
2013-02-14 05:59:00,44.1,36.0,30.49,WNW,286,0.0,10.0,73,0.00,,,0.00,Weather View 32 v70,2013-02-14 13:59:00,
2013-02-14 06:04:00,44.1,36.0,30.49,West,281,3.0,10.0,73,0.00,,,0.00,Weather View 32 v70,2013-02-14 14:04:00,
2013-02-14 06:09:00,44.1,36.0,30.49,West,259,0.0,10.0,73,0.00,,,0.00,Weather View 32 v70,2013-02-14 14:09:00,
2013-02-14 06:14:00,44.1,36.0,30.49,West,269,2.0,10.0,73,0.00,,,0.00,Weather View 32 v70,2013-02-14 14:14:00,
2013-02-14 06:19:00,44.2,35.7,30.49,WNW,285,0.0,10.0,72,0.00,,,0.00,Weather View 32 v70,2013-02-14 14:19:00,
2013-02-14 06:24:00,44.3,35.8,30.49,West,271,0.0,10.0,72,0.00,,,0.00,Weather View 32 v70,2013-02-14 14:24:00,
2013-02-14 06:29:00,44.2,36.1,30.49,West,271,0.0,10.0,73,0.00,,,0.00,Weather View 32 v70,2013-02-14 14:29:00,
2013-02-14 06:34:00,44.1,36.0,30.49,SW,225,0.0,10.0,73,0.00,,,0.00,Weather View 32 v70,2013-02-14 14:34:00,
2013-02-14 06:39:00,43.9,35.8,30.49,SW,225,0.0,10.0,73,0.00,,,0.00,Weather View 32 v70,2013-02-14 14:39:00,
2013-02-14 06:44:00,43.9,35.8,30.49,WSW,254,0.0,10.0,73,0.00,,,0.00,Weather View 32 v70,2013-02-14 14:44:00,
2013-02-14 06:49:00,43.8,35.7,30.49,WSW,254,0.0,10.0,73,0.00,,,0.00,Weather View 32 v70,2013-02-14 14:49:00,
2013-02-14 06:54:00,43.8,36.0,30.49,West,273,0.0,10.0,74,0.00,,,0.00,Weather View 32 v70,2013-02-14 14:54:00,
2013-02-14 06:59:00,43.6,35.8,30.49,West,273,0.0,10.0,74,0.00,,,0.00,Weather View 32 v70,2013-02-14 14:59:00,
2013-02-14 07:04:00,43.6,35.5,30.49,WNW,292,0.0,10.0,73,0.00,,,0.00,Weather View 32 v70,2013-02-14 15:04:00,
2013-02-14 07:09:00,43.9,35.8,30.49,WNW,291,0.0,10.0,73,0.00,,,0.00,Weather View 32 v70,2013-02-14 15:09:00,
2013-02-14 07:14:00,43.8,35.7,30.49,WNW,291,0.0,10.0,73,0.00,,,0.00,Weather View 32 v70,2013-02-14 15:14:00,
2013-02-14 07:19:00,43.5,35.8,30.49,WNW,291,1.0,6.0,74,0.00,,,0.00,Weather View 32 v70,2013-02-14 15:19:00,
2013-02-14 07:24:00,43.8,36.0,30.48,West,259,0.0,6.0,74,0.00,,,0.00,Weather View 32 v70,2013-02-14 15:24:00,
2013-02-14 07:29:00,43.8,36.0,30.49,West,263,0.0,6.0,74,0.00,,,0.00,Weather View 32 v70,2013-02-14 15:29:00,
2013-02-14 07:34:00,43.6,35.8,30.49,West,270,0.0,6.0,74,0.00,,,0.00,Weather View 32 v70,2013-02-14 15:34:00,
2013-02-14 07:39:00,43.3,35.9,30.49,West,273,0.0,6.0,75,0.00,,,0.00,Weather View 32 v70,2013-02-14 15:39:00,
2013-02-14 07:44:00,43.1,36.0,30.50,West,280,0.0,6.0,76,0.00,,,0.00,Weather View 32 v70,2013-02-14 15:44:00,
2013-02-14 07:49:00,42.9,36.2,30.50,West,280,0.0,6.0,77,0.00,,,0.00,Weather View 32 v70,2013-02-14 15:49:00,
2013-02-14 07:54:00,42.9,36.2,30.50,West,281,0.0,6.0,77,0.00,,,0.00,Weather View 32 v70,2013-02-14 15:54:00,
2013-02-14 07:59:00,42.8,36.1,30.50,NW,304,3.0,6.0,77,0.00,,,0.00,Weather View 32 v70,2013-02-14 15:59:00,
2013-02-14 08:04:00,42.5,35.8,30.50,WNW,296,0.0,6.0,77,0.00,,,0.00,Weather View 32 v70,2013-02-14 16:04:00,
2013-02-14 08:09:00,42.3,35.9,30.50,WNW,296,0.0,6.0,78,0.00,,,0.00,Weather View 32 v70,2013-02-14 16:09:00,
2013-02-14 08:14:00,42.2,35.8,30.50,WNW,296,0.0,6.0,78,0.00,,,0.00,Weather View 32 v70,2013-02-14 16:14:00,
2013-02-14 08:19:00,42.6,35.9,30.50,NNW,340,5.0,6.0,77,0.00,,,0.00,Weather View 32 v70,2013-02-14 16:19:00,
2013-02-14 08:24:00,43.2,36.1,30.50,NW,313,0.0,6.0,76,0.00,,,0.00,Weather View 32 v70,2013-02-14 16:24:00,
2013-02-14 08:29:00,43.3,36.2,30.50,NW,313,0.0,6.0,76,0.00,,,0.00,Weather View 32 v70,2013-02-14 16:29:00,
2013-02-14 08:34:00,43.3,36.2,30.50,West,264,5.0,6.0,76,0.00,,,0.00,Weather View 32 v70,2013-02-14 16:34:00,
2013-02-14 08:39:00,44.2,36.1,30.51,West,277,0.0,8.0,73,0.00,,,0.00,Weather View 32 v70,2013-02-14 16:39:00,
2013-02-14 08:44:00,44.8,36.0,30.51,WNW,293,0.0,10.0,71,0.00,,,0.00,Weather View 32 v70,2013-02-14 16:44:00,
2013-02-14 08:49:00,45.1,36.2,30.51,West,279,5.0,10.0,71,0.00,,,0.00,Weather View 32 v70,2013-02-14 16:49:00,
2013-02-14 08:54:00,45.2,36.0,30.50,WNW,286,0.0,10.0,70,0.00,,,0.00,Weather View 32 v70,2013-02-14 16:54:00,
2013-02-14 08:59:00,45.4,36.5,30.50,WNW,286,0.0,10.0,71,0.00,,,0.00,Weather View 32 v70,2013-02-14 16:59:00,
2013-02-14 09:04:00,45.5,36.6,30.50,WNW,286,0.0,10.0,71,0.00,,,0.00,Weather View 32 v70,2013-02-14 17:04:00,
2013-02-14 09:09:00,45.7,36.5,30.50,WNW,286,0.0,10.0,70,0.00,,,0.00,Weather View 32 v70,2013-02-14 17:09:00,
2013-02-14 09:14:00,45.7,36.5,30.50,WNW,296,0.0,10.0,70,0.00,,,0.00,Weather View 32 v70,2013-02-14 17:14:00,
2013-02-14 09:19:00,45.8,36.2,30.51,WNW,291,4.0,10.0,69,0.00,,,0.00,Weather View 32 v70,2013-02-14 17:19:00,
2013-02-14 09:24:00,46.2,36.6,30.51,West,274,0.0,10.0,69,0.00,,,0.00,Weather View 32 v70,2013-02-14 17:24:00,
2013-02-14 09:29:00,46.2,36.6,30.51,WNW,284,0.0,10.0,69,0.00,,,0.00,Weather View 32 v70,2013-02-14 17:29:00,
2013-02-14 09:34:00,45.8,36.6,30.51,WNW,294,0.0,10.0,70,0.00,,,0.00,Weather View 32 v70,2013-02-14 17:34:00,
2013-02-14 09:39:00,45.4,36.9,30.51,WNW,294,0.0,10.0,72,0.00,,,0.00,Weather View 32 v70,2013-02-14 17:39:00,
2013-02-14 09:44:00,45.4,36.9,30.51,WNW,294,0.0,8.0,72,0.00,,,0.00,Weather View 32 v70,2013-02-14 17:44:00,
2013-02-14 09:49:00,45.8,37.3,30.51,WNW,294,0.0,8.0,72,0.00,,,0.00,Weather View 32 v70,2013-02-14 17:49:00,
2013-02-14 09:54:00,46.2,37.3,30.51,WNW,294,0.0,5.0,71,0.00,,,0.00,Weather View 32 v70,2013-02-14 17:54:00,
2013-02-14 09:59:00,46.5,37.2,30.51,WNW,298,2.0,5.0,70,0.00,,,0.00,Weather View 32 v70,2013-02-14 17:59:00,
2013-02-14 10:04:00,46.5,36.9,30.51,West,269,1.0,5.0,69,0.00,,,0.00,Weather View 32 v70,2013-02-14 18:04:00,
2013-02-14 10:09:00,47.0,37.0,30.51,WNW,284,3.0,6.0,68,0.00,,,0.00,Weather View 32 v70,2013-02-14 18:09:00,
2013-02-14 10:14:00,47.4,37.0,30.51,West,276,5.0,7.0,67,0.00,,,0.00,Weather View 32 v70,2013-02-14 18:14:00,
2013-02-14 10:19:00,47.6,36.8,30.51,West,277,6.0,7.0,66,0.00,,,0.00,Weather View 32 v70,2013-02-14 18:19:00,
2013-02-14 10:24:00,47.7,36.9,30.52,West,273,0.0,7.0,66,0.00,,,0.00,Weather View 32 v70,2013-02-14 18:24:00,
2013-02-14 10:29:00,47.9,37.1,30.52,West,274,2.0,8.0,66,0.00,,,0.00,Weather View 32 v70,2013-02-14 18:29:00,
2013-02-14 10:34:00,48.0,37.2,30.52,West,274,0.0,8.0,66,0.00,,,0.00,Weather View 32 v70,2013-02-14 18:34:00,
2013-02-14 10:39:00,48.3,37.1,30.52,WNW,294,4.0,8.0,65,0.00,,,0.00,Weather View 32 v70,2013-02-14 18:39:00,
2013-02-14 10:44:00,48.5,37.3,30.52,WSW,243,0.0,8.0,65,0.00,,,0.00,Weather View 32 v70,2013-02-14 18:44:00,
2013-02-14 10:49:00,48.8,37.5,30.52,WSW,251,0.0,8.0,65,0.00,,,0.00,Weather View 32 v70,2013-02-14 18:49:00,
2013-02-14 10:54:00,48.9,36.8,30.51,West,269,2.0,8.0,63,0.00,,,0.00,Weather View 32 v70,2013-02-14 18:54:00,
2013-02-14 10:59:00,49.1,37.0,30.51,West,274,0.0,8.0,63,0.00,,,0.00,Weather View 32 v70,2013-02-14 18:59:00,
2013-02-14 11:04:00,49.2,37.1,30.51,WNW,285,5.0,8.0,63,0.00,,,0.00,Weather View 32 v70,2013-02-14 19:04:00,
2013-02-14 11:09:00,49.4,37.3,30.51,NW,305,3.0,8.0,63,0.00,,,0.00,Weather View 32 v70,2013-02-14 19:09:00,
2013-02-14 11:14:00,49.4,37.3,30.51,West,263,2.0,8.0,63,0.00,,,0.00,Weather View 32 v70,2013-02-14 19:14:00,
2013-02-14 11:19:00,49.5,37.4,30.51,West,259,5.0,10.0,63,0.00,,,0.00,Weather View 32 v70,2013-02-14 19:19:00,
2013-02-14 11:24:00,49.4,37.3,30.51,West,261,3.0,11.0,63,0.00,,,0.00,Weather View 32 v70,2013-02-14 19:24:00,
2013-02-14 11:29:00,49.4,37.7,30.51,West,270,4.0,12.0,64,0.00,,,0.00,Weather View 32 v70,2013-02-14 19:29:00,
2013-02-14 11:34:00,49.2,37.5,30.50,West,274,7.0,14.0,64,0.00,,,0.00,Weather View 32 v70,2013-02-14 19:34:00,
2013-02-14 11:39:00,49.5,37.8,30.50,West,280,4.0,15.0,64,0.00,,,0.00,Weather View 32 v70,2013-02-14 19:39:00,
2013-02-14 11:44:00,49.5,38.2,30.50,WSW,245,2.0,15.0,65,0.00,,,0.00,Weather View 32 v70,2013-02-14 19:44:00,
2013-02-14 11:49:00,49.6,38.3,30.50,WSW,252,9.0,15.0,65,0.00,,,0.00,Weather View 32 v70,2013-02-14 19:49:00,
2013-02-14 11:54:00,49.9,38.2,30.50,West,261,4.0,15.0,64,0.00,,,0.00,Weather View 32 v70,2013-02-14 19:54:00,
2013-02-14 11:59:00,50.2,38.5,30.49,NW,304,10.0,15.0,64,0.00,,,0.00,Weather View 32 v70,2013-02-14 19:59:00,
2013-02-14 12:04:00,50.4,38.3,30.49,West,275,2.0,15.0,63,0.00,,,0.00,Weather View 32 v70,2013-02-14 20:04:00,
2013-02-14 12:09:00,50.8,38.6,30.49,WNW,303,1.0,15.0,63,0.00,,,0.00,Weather View 32 v70,2013-02-14 20:09:00,
2013-02-14 12:14:00,50.7,38.5,30.49,WNW,287,3.0,15.0,63,0.00,,,0.00,Weather View 32 v70,2013-02-14 20:14:00,
2013-02-14 12:19:00,50.8,38.6,30.50,WNW,284,5.0,15.0,63,0.00,,,0.00,Weather View 32 v70,2013-02-14 20:19:00,
2013-02-14 12:24:00,51.0,38.8,30.49,NW,306,3.0,15.0,63,0.00,,,0.00,Weather View 32 v70,2013-02-14 20:24:00,
2013-02-14 12:29:00,51.1,38.5,30.49,WNW,288,9.0,15.0,62,0.00,,,0.00,Weather View 32 v70,2013-02-14 20:29:00,
2013-02-14 12:34:00,51.3,38.7,30.48,NW,312,8.0,15.0,62,0.00,,,0.00,Weather View 32 v70,2013-02-14 20:34:00,
2013-02-14 12:39:00,51.3,38.7,30.48,West,262,8.0,19.0,62,0.00,,,0.00,Weather View 32 v70,2013-02-14 20:39:00,
2013-02-14 12:44:00,51.4,38.8,30.49,West,267,6.0,19.0,62,0.00,,,0.00,Weather View 32 v70,2013-02-14 20:44:00,
2013-02-14 12:49:00,51.6,39.4,30.49,WSW,254,4.0,19.0,63,0.00,,,0.00,Weather View 32 v70,2013-02-14 20:49:00,
2013-02-14 12:54:00,51.7,39.1,30.49,WSW,246,2.0,19.0,62,0.00,,,0.00,Weather View 32 v70,2013-02-14 20:54:00,
2013-02-14 12:59:00,51.9,39.3,30.49,West,265,8.0,19.0,62,0.00,,,0.00,Weather View 32 v70,2013-02-14 20:59:00,
2013-02-14 13:04:00,51.7,39.1,30.49,WNW,298,4.0,19.0,62,0.00,,,0.00,Weather View 32 v70,2013-02-14 21:04:00,
2013-02-14 13:09:00,51.7,39.1,30.49,West,273,2.0,19.0,62,0.00,,,0.00,Weather View 32 v70,2013-02-14 21:09:00,
2013-02-14 13:14:00,51.7,39.1,30.49,WNW,292,11.0,19.0,62,0.00,,,0.00,Weather View 32 v70,2013-02-14 21:14:00,
2013-02-14 13:19:00,52.0,39.4,30.49,WNW,288,7.0,19.0,62,0.00,,,0.00,Weather View 32 v70,2013-02-14 21:19:00,
2013-02-14 13:24:00,52.0,39.4,30.49,West,260,6.0,19.0,62,0.00,,,0.00,Weather View 32 v70,2013-02-14 21:24:00,
2013-02-14 13:29:00,52.0,39.4,30.48,WSW,257,12.0,21.0,62,0.00,,,0.00,Weather View 32 v70,2013-02-14 21:29:00,
2013-02-14 13:34:00,52.2,39.5,30.48,WNW,286,5.0,21.0,62,0.00,,,0.00,Weather View 32 v70,2013-02-14 21:34:00,
2013-02-14 13:39:00,52.3,39.6,30.48,West,263,9.0,21.0,62,0.00,,,0.00,Weather View 32 v70,2013-02-14 21:39:00,
2013-02-14 13:44:00,52.2,39.5,30.48,West,271,8.0,21.0,62,0.00,,,0.00,Weather View 32 v70,2013-02-14 21:44:00,
2013-02-14 13:49:00,52.2,39.5,30.49,West,268,5.0,21.0,62,0.00,,,0.00,Weather View 32 v70,2013-02-14 21:49:00,
2013-02-14 13:54:00,52.0,39.4,30.49,SSW,213,5.0,21.0,62,0.00,,,0.00,Weather View 32 v70,2013-02-14 21:54:00,
2013-02-14 13:59:00,52.3,39.6,30.49,West,278,4.0,21.0,62,0.00,,,0.00,Weather View 32 v70,2013-02-14 21:59:00,
2013-02-14 14:04:00,52.5,39.8,30.49,WNW,300,0.0,21.0,62,0.00,,,0.00,Weather View 32 v70,2013-02-14 22:04:00,
2013-02-14 14:09:00,52.6,39.9,30.49,West,272,5.0,21.0,62,0.00,,,0.00,Weather View 32 v70,2013-02-14 22:09:00,
2013-02-14 14:14:00,52.6,39.9,30.49,West,263,8.0,21.0,62,0.00,,,0.00,Weather View 32 v70,2013-02-14 22:14:00,
2013-02-14 14:19:00,52.6,39.9,30.49,West,277,13.0,21.0,62,0.00,,,0.00,Weather View 32 v70,2013-02-14 22:19:00,
2013-02-14 14:24:00,52.6,39.9,30.48,West,275,1.0,21.0,62,0.00,,,0.00,Weather View 32 v70,2013-02-14 22:24:00,
2013-02-14 14:29:00,52.8,39.7,30.48,WSW,248,3.0,21.0,61,0.00,,,0.00,Weather View 32 v70,2013-02-14 22:29:00,
2013-02-14 14:34:00,52.8,40.1,30.49,West,279,2.0,17.0,62,0.00,,,0.00,Weather View 32 v70,2013-02-14 22:34:00,
2013-02-14 14:39:00,52.8,40.1,30.49,WSW,254,2.0,17.0,62,0.00,,,0.00,Weather View 32 v70,2013-02-14 22:39:00,
2013-02-14 14:44:00,52.8,40.1,30.48,West,281,6.0,17.0,62,0.00,,,0.00,Weather View 32 v70,2013-02-14 22:44:00,
2013-02-14 14:49:00,52.9,39.8,30.48,West,276,7.0,17.0,61,0.00,,,0.00,Weather View 32 v70,2013-02-14 22:49:00,
2013-02-14 14:54:00,53.2,40.1,30.48,West,271,5.0,15.0,61,0.00,,,0.00,Weather View 32 v70,2013-02-14 22:54:00,
2013-02-14 14:59:00,53.5,40.4,30.48,WNW,288,2.0,15.0,61,0.00,,,0.00,Weather View 32 v70,2013-02-14 22:59:00,
2013-02-14 15:04:00,53.5,40.4,30.48,WNW,294,3.0,15.0,61,0.00,,,0.00,Weather View 32 v70,2013-02-14 23:04:00,
2013-02-14 15:09:00,53.5,40.4,30.48,West,277,7.0,15.0,61,0.00,,,0.00,Weather View 32 v70,2013-02-14 23:09:00,
2013-02-14 15:14:00,53.5,40.4,30.48,SW,236,9.0,15.0,61,0.00,,,0.00,Weather View 32 v70,2013-02-14 23:14:00,
2013-02-14 15:19:00,53.3,40.6,30.48,SW,232,9.0,15.0,62,0.00,,,0.00,Weather View 32 v70,2013-02-14 23:19:00,
2013-02-14 15:24:00,53.5,40.8,30.48,West,263,12.0,15.0,62,0.00,,,0.00,Weather View 32 v70,2013-02-14 23:24:00,
2013-02-14 15:29:00,53.5,40.4,30.48,West,265,3.0,15.0,61,0.00,,,0.00,Weather View 32 v70,2013-02-14 23:29:00,
2013-02-14 15:34:00,53.6,40.5,30.48,WSW,252,8.0,15.0,61,0.00,,,0.00,Weather View 32 v70,2013-02-14 23:34:00,
2013-02-14 15:39:00,53.6,40.5,30.48,West,263,7.0,17.0,61,0.00,,,0.00,Weather View 32 v70,2013-02-14 23:39:00,
2013-02-14 15:44:00,53.5,40.4,30.48,West,260,7.0,17.0,61,0.00,,,0.00,Weather View 32 v70,2013-02-14 23:44:00,
2013-02-14 15:49:00,53.5,40.4,30.48,West,261,8.0,17.0,61,0.00,,,0.00,Weather View 32 v70,2013-02-14 23:49:00,
2013-02-14 15:54:00,53.5,40.4,30.48,West,265,10.0,18.0,61,0.00,,,0.00,Weather View 32 v70,2013-02-14 23:54:00,
2013-02-14 15:59:00,53.5,40.8,30.48,West,273,7.0,18.0,62,0.00,,,0.00,Weather View 32 v70,2013-02-14 23:59:00,
2013-02-14 16:04:00,53.3,40.6,30.48,WNW,284,10.0,18.0,62,0.00,,,0.00,Weather View 32 v70,2013-02-15 00:04:00,
2013-02-14 16:09:00,53.1,40.4,30.48,West,261,11.0,18.0,62,0.00,,,0.00,Weather View 32 v70,2013-02-15 00:09:00,
2013-02-14 16:14:00,52.9,40.6,30.48,WNW,288,3.0,18.0,63,0.00,,,0.00,Weather View 32 v70,2013-02-15 00:14:00,
2013-02-14 16:19:00,53.1,40.4,30.48,WSW,251,11.0,18.0,62,0.00,,,0.00,Weather View 32 v70,2013-02-15 00:19:00,
2013-02-14 16:24:00,52.9,40.6,30.48,West,265,12.0,18.0,63,0.00,,,0.00,Weather View 32 v70,2013-02-15 00:24:00,
2013-02-14 16:29:00,52.8,40.5,30.47,West,270,2.0,18.0,63,0.00,,,0.00,Weather View 32 v70,2013-02-15 00:29:00,
2013-02-14 16:34:00,52.6,40.3,30.47,WSW,258,7.0,18.0,63,0.00,,,0.00,Weather View 32 v70,2013-02-15 00:34:00,
2013-02-14 16:39:00,52.5,40.7,30.48,WSW,244,9.0,18.0,64,0.00,,,0.00,Weather View 32 v70,2013-02-15 00:39:00,
2013-02-14 16:40:00,52.3,40.5,30.48,West,265,6.0,18.0,64,0.00,,,0.00,Weather View 32 v70,2013-02-15 00:40:00,
2013-02-14 16:52:00,51.9,40.5,30.48,West,279,4.0,18.0,65,0.00,,,0.00,Weather View 32 v70,2013-02-15 00:52:00,
2013-02-14 16:57:00,51.9,40.5,30.48,WNW,284,7.0,17.0,65,0.00,,,0.00,Weather View 32 v70,2013-02-15 00:57:00,
2013-02-14 17:02:00,51.7,40.3,30.48,WSW,257,6.0,17.0,65,0.00,,,0.00,Weather View 32 v70,2013-02-15 01:02:00,
2013-02-14 17:07:00,51.6,40.2,30.48,West,281,6.0,17.0,65,0.00,,,0.00,Weather View 32 v70,2013-02-15 01:07:00,
2013-02-14 17:12:00,51.4,40.4,30.47,WNW,291,4.0,17.0,66,0.00,,,0.00,Weather View 32 v70,2013-02-15 01:12:00,
2013-02-14 17:17:00,51.3,40.3,30.48,WSW,246,12.0,17.0,66,0.00,,,0.00,Weather View 32 v70,2013-02-15 01:17:00,
2013-02-14 17:22:00,51.3,40.3,30.47,WNW,283,7.0,17.0,66,0.00,,,0.00,Weather View 32 v70,2013-02-15 01:22:00,
2013-02-14 17:27:00,51.1,40.1,30.48,West,268,2.0,17.0,66,0.00,,,0.00,Weather View 32 v70,2013-02-15 01:27:00,
2013-02-14 17:32:00,51.0,40.4,30.48,WSW,254,4.0,17.0,67,0.00,,,0.00,Weather View 32 v70,2013-02-15 01:32:00,
2013-02-14 17:37:00,50.7,40.1,30.48,WNW,289,4.0,17.0,67,0.00,,,0.00,Weather View 32 v70,2013-02-15 01:37:00,
2013-02-14 17:42:00,50.7,40.1,30.47,West,267,6.0,17.0,67,0.00,,,0.00,Weather View 32 v70,2013-02-15 01:42:00,
2013-02-14 17:47:00,50.5,40.3,30.47,West,261,9.0,17.0,68,0.00,,,0.00,Weather View 32 v70,2013-02-15 01:47:00,
2013-02-14 17:52:00,50.4,40.2,30.47,West,279,3.0,17.0,68,0.00,,,0.00,Weather View 32 v70,2013-02-15 01:52:00,
2013-02-14 17:57:00,50.4,40.2,30.47,WNW,288,3.0,17.0,68,0.00,,,0.00,Weather View 32 v70,2013-02-15 01:57:00,
2013-02-14 18:02:00,50.4,40.2,30.48,WNW,297,2.0,17.0,68,0.00,,,0.00,Weather View 32 v70,2013-02-15 02:02:00,
2013-02-14 18:07:00,50.2,40.0,30.47,WNW,294,7.0,17.0,68,0.00,,,0.00,Weather View 32 v70,2013-02-15 02:07:00,
2013-02-14 18:12:00,50.2,40.0,30.48,WNW,288,3.0,17.0,68,0.00,,,0.00,Weather View 32 v70,2013-02-15 02:12:00,
2013-02-14 18:17:00,50.1,40.3,30.48,West,271,7.0,17.0,69,0.00,,,0.00,Weather View 32 v70,2013-02-15 02:17:00,
2013-02-14 18:22:00,50.1,40.3,30.48,WSW,244,9.0,15.0,69,0.00,,,0.00,Weather View 32 v70,2013-02-15 02:22:00,
2013-02-14 18:27:00,50.1,40.3,30.48,WNW,286,5.0,15.0,69,0.00,,,0.00,Weather View 32 v70,2013-02-15 02:27:00,
2013-02-14 18:32:00,49.9,40.1,30.48,WNW,301,0.0,15.0,69,0.00,,,0.00,Weather View 32 v70,2013-02-15 02:32:00,
2013-02-14 18:37:00,49.8,40.4,30.48,WNW,300,3.0,15.0,70,0.00,,,0.00,Weather View 32 v70,2013-02-15 02:37:00,
2013-02-14 18:42:00,49.6,40.2,30.48,WNW,302,4.0,14.0,70,0.00,,,0.00,Weather View 32 v70,2013-02-15 02:42:00,
2013-02-14 18:47:00,49.5,40.1,30.48,WNW,289,4.0,14.0,70,0.00,,,0.00,Weather View 32 v70,2013-02-15 02:47:00,
2013-02-14 18:52:00,49.2,40.2,30.48,WNW,298,1.0,14.0,71,0.00,,,0.00,Weather View 32 v70,2013-02-15 02:52:00,
2013-02-14 18:57:00,49.1,40.4,30.48,West,279,1.0,14.0,72,0.00,,,0.00,Weather View 32 v70,2013-02-15 02:57:00,
2013-02-14 19:02:00,48.8,40.2,30.48,West,279,0.0,14.0,72,0.00,,,0.00,Weather View 32 v70,2013-02-15 03:02:00,
2013-02-14 19:07:00,48.6,40.3,30.48,West,279,4.0,14.0,73,0.00,,,0.00,Weather View 32 v70,2013-02-15 03:07:00,
2013-02-14 19:12:00,48.3,40.0,30.48,West,279,0.0,14.0,73,0.00,,,0.00,Weather View 32 v70,2013-02-15 03:12:00,
2013-02-14 19:17:00,48.0,40.1,30.48,WNW,283,0.0,14.0,74,0.00,,,0.00,Weather View 32 v70,2013-02-15 03:17:00,
2013-02-14 19:22:00,47.7,40.2,30.48,WSW,249,1.0,14.0,75,0.00,,,0.00,Weather View 32 v70,2013-02-15 03:22:00,
2013-02-14 19:27:00,47.7,40.2,30.48,WSW,250,0.0,14.0,75,0.00,,,0.00,Weather View 32 v70,2013-02-15 03:27:00,
2013-02-14 19:32:00,47.4,40.2,30.48,West,279,0.0,10.0,76,0.00,,,0.00,Weather View 32 v70,2013-02-15 03:32:00,
2013-02-14 19:37:00,47.3,40.1,30.48,West,278,0.0,10.0,76,0.00,,,0.00,Weather View 32 v70,2013-02-15 03:37:00,
2013-02-14 19:42:00,47.3,40.1,30.48,West,278,0.0,10.0,76,0.00,,,0.00,Weather View 32 v70,2013-02-15 03:42:00,
2013-02-14 19:47:00,47.4,40.2,30.48,West,278,0.0,10.0,76,0.00,,,0.00,Weather View 32 v70,2013-02-15 03:47:00,
2013-02-14 19:52:00,47.4,40.2,30.48,West,279,0.0,10.0,76,0.00,,,0.00,Weather View 32 v70,2013-02-15 03:52:00,
2013-02-14 19:57:00,47.4,40.2,30.48,West,279,0.0,10.0,76,0.00,,,0.00,Weather View 32 v70,2013-02-15 03:57:00,
2013-02-14 20:02:00,47.4,40.2,30.48,West,279,0.0,10.0,76,0.00,,,0.00,Weather View 32 v70,2013-02-15 04:02:00,
2013-02-14 20:07:00,47.3,40.1,30.48,West,279,0.0,10.0,76,0.00,,,0.00,Weather View 32 v70,2013-02-15 04:07:00,
2013-02-14 20:12:00,47.1,39.9,30.48,West,279,2.0,10.0,76,0.00,,,0.00,Weather View 32 v70,2013-02-15 04:12:00,
2013-02-14 20:17:00,47.1,40.2,30.49,West,271,0.0,10.0,77,0.00,,,0.00,Weather View 32 v70,2013-02-15 04:17:00,
2013-02-14 20:22:00,47.0,40.2,30.49,West,271,0.0,8.0,77,0.00,,,0.00,Weather View 32 v70,2013-02-15 04:22:00,
2013-02-14 20:27:00,46.7,39.9,30.49,West,277,0.0,8.0,77,0.00,,,0.00,Weather View 32 v70,2013-02-15 04:27:00,
2013-02-14 20:32:00,46.4,39.9,30.49,West,277,0.0,8.0,78,0.00,,,0.00,Weather View 32 v70,2013-02-15 04:32:00,
2013-02-14 20:37:00,46.0,39.8,30.49,West,277,0.0,8.0,79,0.00,,,0.00,Weather View 32 v70,2013-02-15 04:37:00,
2013-02-14 20:42:00,46.0,39.8,30.49,WNW,290,0.0,8.0,79,0.00,,,0.00,Weather View 32 v70,2013-02-15 04:42:00,
2013-02-14 20:47:00,45.8,39.6,30.49,WNW,288,0.0,8.0,79,0.00,,,0.00,Weather View 32 v70,2013-02-15 04:47:00,
2013-02-14 20:52:00,45.7,39.9,30.49,WNW,288,0.0,8.0,80,0.00,,,0.00,Weather View 32 v70,2013-02-15 04:52:00,
2013-02-14 20:57:00,45.4,39.6,30.49,WNW,288,0.0,8.0,80,0.00,,,0.00,Weather View 32 v70,2013-02-15 04:57:00,
2013-02-14 21:00:00,45.4,39.9,30.49,WNW,288,0.0,8.0,81,0.00,,,0.00,Weather View 32 v70,2013-02-15 05:00:00,
2013-02-14 21:05:00,45.2,39.7,30.49,WNW,288,0.0,8.0,81,0.00,,,0.00,Weather View 32 v70,2013-02-15 05:05:00,
2013-02-14 21:10:00,45.1,39.6,30.49,WNW,288,0.0,8.0,81,0.00,,,0.00,Weather View 32 v70,2013-02-15 05:10:00,
2013-02-14 21:15:00,44.8,39.3,30.49,WNW,288,0.0,8.0,81,0.00,,,0.00,Weather View 32 v70,2013-02-15 05:15:00,
2013-02-14 21:20:00,44.6,39.1,30.49,WNW,288,0.0,6.0,81,0.00,,,0.00,Weather View 32 v70,2013-02-15 05:20:00,
2013-02-14 21:25:00,44.3,38.8,30.49,WNW,288,0.0,6.0,81,0.00,,,0.00,Weather View 32 v70,2013-02-15 05:25:00,
2013-02-14 21:30:00,44.1,39.0,30.49,WNW,288,0.0,6.0,82,0.00,,,0.00,Weather View 32 v70,2013-02-15 05:30:00,
2013-02-14 21:35:00,44.1,39.0,30.49,WNW,288,0.0,6.0,82,0.00,,,0.00,Weather View 32 v70,2013-02-15 05:35:00,
2013-02-14 21:40:00,44.1,39.0,30.49,WNW,288,0.0,6.0,82,0.00,,,0.00,Weather View 32 v70,2013-02-15 05:40:00,
2013-02-14 21:45:00,43.9,39.1,30.49,WNW,288,0.0,3.0,83,0.00,,,0.00,Weather View 32 v70,2013-02-15 05:45:00,
2013-02-14 21:50:00,43.9,39.1,30.49,WNW,288,0.0,3.0,83,0.00,,,0.00,Weather View 32 v70,2013-02-15 05:50:00,
2013-02-14 21:55:00,43.8,39.0,30.50,WNW,288,0.0,3.0,83,0.00,,,0.00,Weather View 32 v70,2013-02-15 05:55:00,
2013-02-14 22:00:00,43.6,38.8,30.50,WNW,288,0.0,3.0,83,0.00,,,0.00,Weather View 32 v70,2013-02-15 06:00:00,
2013-02-14 22:05:00,43.5,38.7,30.50,WNW,288,0.0,2.0,83,0.00,,,0.00,Weather View 32 v70,2013-02-15 06:05:00,
2013-02-14 22:10:00,43.1,38.0,30.50,WNW,288,0.0,2.0,82,0.00,,,0.00,Weather View 32 v70,2013-02-15 06:10:00,
2013-02-14 22:15:00,42.6,37.8,30.50,WNW,288,0.0,2.0,83,0.00,,,0.00,Weather View 32 v70,2013-02-15 06:15:00,
2013-02-14 22:20:00,42.3,37.8,30.50,WNW,288,0.0,2.0,84,0.00,,,0.00,Weather View 32 v70,2013-02-15 06:20:00,
2013-02-14 22:25:00,42.2,37.7,30.50,WNW,288,0.0,2.0,84,0.00,,,0.00,Weather View 32 v70,2013-02-15 06:25:00,
2013-02-14 22:30:00,42.2,38.0,30.50,WNW,288,0.0,2.0,85,0.00,,,0.00,Weather View 32 v70,2013-02-15 06:30:00,
2013-02-14 22:35:00,42.3,38.1,30.51,WNW,288,0.0,4.0,85,0.00,,,0.00,Weather View 32 v70,2013-02-15 06:35:00,
2013-02-14 22:40:00,42.5,38.3,30.50,WNW,298,2.0,6.0,85,0.00,,,0.00,Weather View 32 v70,2013-02-15 06:40:00,
2013-02-14 22:45:00,42.6,38.4,30.51,NW,310,0.0,6.0,85,0.00,,,0.00,Weather View 32 v70,2013-02-15 06:45:00,
2013-02-14 22:50:00,42.6,38.1,30.51,WNW,302,4.0,6.0,84,0.00,,,0.00,Weather View 32 v70,2013-02-15 06:50:00,
2013-02-14 22:55:00,42.8,38.3,30.51,NW,313,3.0,6.0,84,0.00,,,0.00,Weather View 32 v70,2013-02-15 06:55:00,
2013-02-14 23:00:00,42.8,38.3,30.51,NW,306,0.0,7.0,84,0.00,,,0.00,Weather View 32 v70,2013-02-15 07:00:00,
2013-02-14 23:05:00,42.6,38.1,30.51,NW,306,0.0,7.0,84,0.00,,,0.00,Weather View 32 v70,2013-02-15 07:05:00,
2013-02-14 23:10:00,42.5,38.0,30.51,NW,306,0.0,7.0,84,0.00,,,0.00,Weather View 32 v70,2013-02-15 07:10:00,
2013-02-14 23:15:00,42.5,38.0,30.51,NW,306,0.0,7.0,84,0.00,,,0.00,Weather View 32 v70,2013-02-15 07:15:00,
2013-02-14 23:20:00,41.5,36.1,30.51,NW,306,0.0,7.0,81,0.00,,,0.00,Weather View 32 v70,2013-02-15 07:20:00,
2013-02-14 23:25:00,40.6,35.5,30.52,NW,306,0.0,7.0,82,0.00,,,0.00,Weather View 32 v70,2013-02-15 07:25:00,
2013-02-14 23:30:00,39.9,35.2,30.52,NW,306,0.0,7.0,83,0.00,,,0.00,Weather View 32 v70,2013-02-15 07:30:00,
2013-02-14 23:35:00,39.3,34.6,30.52,NW,306,0.0,7.0,83,0.00,,,0.00,Weather View 32 v70,2013-02-15 07:35:00,
2013-02-14 23:40:00,38.6,34.2,30.52,NW,306,0.0,7.0,84,0.00,,,0.00,Weather View 32 v70,2013-02-15 07:40:00,
2013-02-14 23:44:00,38.2,34.1,30.52,NW,306,0.0,7.0,85,0.00,,,0.00,Weather View 32 v70,2013-02-15 07:44:00,
2013-02-14 23:49:00,37.9,33.8,30.52,NW,306,0.0,7.0,85,0.00,,,0.00,Weather View 32 v70,2013-02-15 07:49:00,
2013-02-14 23:54:00,37.8,34.0,30.53,NW,306,0.0,7.0,86,0.00,,,0.00,Weather View 32 v70,2013-02-15 07:54:00,
2013-02-14 23:59:00,37.8,34.3,30.52,NW,306,0.0,5.0,87,0.00,,,0.00,Weather View 32 v70,2013-02-15 07:59:00,